Tracking 30417 objects as of 16-May-2025
HD Live streaming from Space Station
objects crossing your sky now

THORAD AGENA D DEB

Track THORAD AGENA D DEB now!
10-day predictions


NORAD ID: 18513
Int'l Code: 1970-025PN
Perigee: 775.8 km
Apogee: 849.0 km
Inclination: 99.8 °
Period: 101.0 minutes
Semi major axis: 7183 km
RCS: 0.0038 m2 (small)
Launch date: April 8, 1970
Source: United States (US)
Launch site: AIR FORCE WESTERN TEST RANGE (AFWTR)

Note: This is SATELLITE DEBRIS
Your satellite tracking list
Your tracking list is empty




NASA's NSSDC Master Catalog

Two Line Element Set (TLE):
1 18513U 70025PN  25134.59236071  .00002349  00000-0  99346-3 0  9992
2 18513  99.7564 352.5305 0051000 116.7766 305.6726 14.25962129 67882
Source of the keplerian elements: AFSPC